Location: Vancouver
(49.2500°N, 123.1330°W)
Time: 08:09:37
(UTC-07:00)

Iridium 21 - Visible Passes

Search period start: 29 March 2017 00:00
Search period end: 08 April 2017 00:00
Orbit: 776 x 779 km, 86.4° (Epoch: 27 March)

Date Brightness Start Highest point End Pass type
(mag) Time Alt. Az. Time Alt. Az. Time Alt. Az.
29 Mar 6.8 05:26:59 10° SSE 05:31:54 44° E 05:36:50 10° NNE visible
30 Mar 7.7 04:54:19 10° SE 04:58:35 26° E 05:02:53 10° NNE visible
31 Mar 8.4 04:22:21 10° ESE 04:25:24 16° ENE 04:28:28 10° NE visible
31 Mar 5.5 06:00:13 10° S 06:05:26 80° W 06:10:42 10° N visible
01 Apr 6.1 05:26:49 10° SSE 05:31:56 61° E 05:37:05 10° N visible
02 Apr 7.1 04:53:51 10° SSE 04:58:33 36° E 05:03:17 10° NNE visible
03 Apr 7.9 04:21:25 10° SE 04:25:18 22° ENE 04:29:12 10° NNE visible
03 Apr 5.6 06:00:28 10° SSW 06:05:36 58° W 06:10:46 10° N visible
04 Apr 8.4 03:49:55 10° E 03:52:10 13° ENE 03:54:24 10° NE visible
04 Apr 5.6 05:26:48 10° S 05:32:01 84° E 05:37:16 10° N visible
05 Apr 6.5 04:53:35 10° SSE 04:58:34 49° E 05:03:36 10° NNE visible
06 Apr 7.4 04:20:48 10° SE 04:25:15 29° E 04:29:42 10° NNE visible
06 Apr 6.0 06:00:53 10° SSW 06:05:48 42° W 06:10:46 10° N visible
07 Apr 8.1 03:48:39 10° ESE 03:52:02 18° ENE 03:55:25 10° NE visible
07 Apr 5.5 05:26:57 10° S 05:32:09 71° W 05:37:24 10° N visible
